AirNav   Everest Fuels
 
 1205 users online  

N27 Bradford County Airport
Towanda, Pennsylvania, USA

GOING TO TOWANDA?


FAA INFORMATION EFFECTIVE 05 NOVEMBER 2020

Location

FAA Identifier: N27
Lat/Long: 41-44-24.0000N 076-26-49.7000W
41-44.400000N 076-26.828333W
41.7400000,-76.4471389
(estimated)
Elevation: 730.3 ft. / 222.6 m (surveyed)
Variation: 12W (2000)
From city: 2 miles S of TOWANDA, PA
Time zone: UTC -5 (UTC -4 during Daylight Saving Time)
Zip code: 18848

Airport Operations

Airport use: Open to the public
Activation date: 07/1938
Control tower: no
ARTCC: NEW YORK CENTER
FSS: WILLIAMSPORT FLIGHT SERVICE STATION
NOTAMs facility: IPT (NOTAM-D service available)
Attendance: M-F 0800-1700, MAR-OCT SAT-SUN 0800-1600, NOV-FEB SAT-SUN UNATTENDED
FOR SVC AFT HRS CALL 570-637-4902.
Wind indicator: lighted
Segmented circle: yes
Lights: ACTVT REIL RWY 05 & 23; PAPI RWY 05 & 23; MIRL RWY 05/23 - 123.0.
Beacon: white-green (lighted land airport)
Operates sunset to sunrise.

Airport Communications

CTAF/UNICOM: 123.0
WX AWOS-3: 119.925 (570-265-1024)
BINGHAMTON APPROACH: 118.6
BINGHAMTON DEPARTURE: 118.6
  • APCH/DEP SVC PRVDD BY NEW YORK ARTCC ON FREQS 132.175/298.9 (ELK MOUNTAIN RCAG) WHEN BINGHAMTON APCH CTL CLSD.

Nearby radio navigation aids

VOR radial/distance  VOR name  Freq  Var
FQMr040/28.2WILLIAMSPORT VOR/DME114.4009W
CFBr219/28.6BINGHAMTON VOR/DME112.2010W
ULWr141/33.4ELMIRA VOR/DME109.6512W

 
NDB name  Hdg/Dist  Freq  Var  ID
ALPINE167/33.124512WALP .- .-.. .--.

Airport Services

Fuel available: 100LL JET-A
Parking: hangars and tiedowns
Airframe service: MAJOR
Powerplant service: MAJOR
Bottled oxygen: NONE
Bulk oxygen: NONE

Runway Information

Runway 5/23

Dimensions: 4301 x 75 ft. / 1311 x 23 m
Surface: asphalt, in fair condition
Weight bearing capacity: 
Single wheel: 12.0
Runway edge lights: medium intensity
RUNWAY 5  RUNWAY 23
Latitude: 41-44.110687N41-44.690593N
Longitude: 076-27.099407W076-26.556652W
Elevation: 730.2 ft.713.5 ft.
Traffic pattern: leftleft
Runway heading: 047 magnetic, 035 true227 magnetic, 215 true
Markings: nonprecision, in fair conditionnonprecision, in fair condition
Visual slope indicator: 2-light PAPI on left (3.00 degrees glide path)2-light PAPI on left (3.00 degrees glide path)
Runway end identifier lights: yesyes
Touchdown point: yes, no lightsyes, no lights
Obstructions: 55 ft. trees, 1212 ft. from runway, 151 ft. right of centerline, 18:1 slope to clearnone

Airport Ownership and Management from official FAA records

Ownership: Publicly-owned
Owner: BRADFORD COUNTY AIRPORT AUTHORITY
415 AIRPORT RD.
TOWANDA, PA 18848
Phone 570-265-4900
Manager: SCOTT HAUSER
415 AIRPORT RD.
TOWANDA, PA 18848
Phone 570-265-4900

Airport Operational Statistics

Aircraft based on the field: 28
Single engine airplanes: 25
Multi engine airplanes: 2
Helicopters: 1
    
Aircraft operations: avg 63/day *
65% transient general aviation
35% local general aviation
<1% military
* for 12-month period ending 18 August 2020

Additional Remarks

COLD TEMPERATURE AIRPORT. ALTITUDE CORRECTION REQUIRED AT OR BELOW -24C.
FOR CD CTC NEW YORK ARTCC AT 631-468-1425.

Instrument Procedures

NOTE: All procedures below are presented as PDF files. If you need a reader for these files, you should download the free Adobe Reader.

NOT FOR NAVIGATION. Please procure official charts for flight.
FAA instrument procedures published for use from 05 November 2020 at 0901Z to 03 December 2020 at 0900z.

 
IAPs - Instrument Approach Procedures
RNAV (GPS) RWY 23 **CHANGED**   download (205KB)
RNAV (GPS)-A **CHANGED**   download (187KB)
NOTE: Special Take-Off Minimums/Departure Procedures apply   download (283KB)

Other nearby airports with instrument procedures:

KCZG - Tri-Cities Airport (26 nm NE)
KELM - Elmira/Corning Regional Airport (32 nm NW)
9N3 - Seamans Field Airport (32 nm E)
KBGM - Greater Binghamton Airport/Edwin A Link Field (35 nm NE)
KIPT - Williamsport Regional Airport (37 nm SW)
 
Loc | Ops | Rwys | IFR | FBO | Links
Com | Nav | Svcs | Stats | Notes
Area around N27 (Bradford County Airport)
 
Road maps at: MapQuest Bing Google
 
Aerial photo
WARNING: Photo may not be current or correct
Aerial photo of N27 (Bradford County Airport)
looking southwest

Do you have a better or more recent aerial photo of Bradford County Airport that you would like to share? If so, please send us your photo.

 
Sectional chart

 
Airport distance calculator
Flying to Bradford County Airport? Find the distance to fly.

From to N27

Sunrise and sunset
Times for 27-Nov-2020
 Local
(UTC-5)
 Zulu
(UTC)
Morning civil twilight06:4011:40
Sunrise07:1112:11
Sunset16:3621:36
Evening civil twilight17:0722:07

Current date and time
Zulu (UTC)  27-Nov-2020 17:32:01
Local (UTC-5)  27-Nov-2020 12:32:01
 
METAR
KELM 
32nm NW 
271653Z 22006KT 10SM SCT029 OVC037 09/06 A3005 RMK AO2 SLP178 T00940056
KBGM 
35nm NE 
271653Z AUTO 25003KT 10SM OVC022 06/03 A3003 RMK AO2 SLP177 T00610033
KIPT 
36nm SW 
271654Z 25006KT 10SM OVC039 11/04 A3006 RMK AO2 SLP180 T01060039
KAVP 
40nm SE 
271654Z 23007KT 10SM FEW024 OVC039 11/06 A3005 RMK AO2 SLP175 T01110056
KN38 
43nm W 
271715Z AUTO 23004KT 10SM OVC024 06/04 A3004 RMK AO2
KITH 
44nm N 
271656Z 25005KT 10SM SCT024 OVC038 08/04 A3005 RMK AO2 SLP178 T00830039
KHZL 
50nm SE 
271715Z AUTO 00000KT 10SM OVC029 10/03 A3007 RMK AO2
TAF
KELM 
32nm NW 
271134Z 2712/2812 26005KT P6SM OVC025 TEMPO 2712/2716 OVC035 FM271600 25005KT P6SM BKN035 FM280800 26003KT P6SM BKN025
KBGM 
35nm NE 
271120Z 2712/2812 27005KT P6SM OVC035 TEMPO 2713/2717 BKN025 FM271700 27006KT P6SM BKN035 FM280600 27005KT P6SM BKN025
KIPT 
36nm SW 
271517Z 2715/2812 27006KT P6SM OVC040
NOTAMs
Click for the latest NOTAMs
NOTAMs are issued by the DoD/FAA and will open in a separate window not controlled by AirNav.

 

 
 

FBO, Fuel Providers, and Aircraft Ground Support

  
 Business Name 
 
 Contact 
 
 Services / Description 
 
Fuel Prices
 
Comments
  
Bradford County Airport Authority 570-265-4900
no information available

If you are affiliated with Bradford County Airport Authority and would like to show here your services, contact info, web link, logo, and more, click here
100LL Jet A
SS $3.75 $2.95 
 Updated 17-Nov-2020
 
   write
SS=Self service
Update Fuel Prices
 

Would you like to see your business listed on this page?

 If your business provides an interesting product or service to pilots, flight crews, aircraft, or users of the Bradford County Airport, you should consider listing it here.  To start the listing process, click on the button below
 
Add a business
 

Other Pages about Bradford County Airport

Update a link
 
Copyright © AirNav, LLC. All rights reserved. Privacy Policy  Contact